{"data":{"norad_id":60576,"epoch":"2026-05-25T04:54:51.918048Z","epoch_age_seconds":54679,"freshness":"FRESH","line1":"1 60576U 24149DN  26145.20476757  .00011537  00000+0  67343-3 0  9992","line2":"2 60576  97.6994 230.0000 0003440  93.1624 267.0000 15.12094459 97091","mean_motion":15.12094459,"eccentricity":0.000344,"inclination_deg":97.6994,"raan_deg":230,"arg_perigee_deg":93.1624,"mean_anomaly_deg":267,"bstar":0.00067343,"rev_number":9709,"period_min":95.232145811335,"perigee_km":527.43732070375,"apogee_km":532.18999075489,"semimajor_km":6907.9506557293,"source":"CELESTRAK","updated_at":"2026-05-25T13:38:13.536051Z"}}